カタログに戻る

STARLINK-5389

運用中通信VLEO
NORAD 54835·PAYLOAD·🇺🇸 United States

打ち上げ Dec 28, 2022 から Cape Canaveral Space Force Station

Loading…

次のパス (今後24時間)

TLE

最新Source: CelesTrak SupGP

元期: Sep 15, 2026, 01:48 UTC

1 54835C 22177R   26258.07548611  .00034171  00000+0  12380-2 0  2588
2 54835  43.0018 146.7779 0001222 270.2639 114.4233 15.27552373    19

AllMySatでSTARLINK-5389をリアルタイム追跡

Download on the App Store